星链-31474 (STARLINK-31474 )

导读 | 豆包AI

STARLINK-31474是美国太空探索技术公司发射的星链低轨互联网卫星,于2024年3月24日发射升空,属于星链星座组网卫星,旨在为全球提供高速低延迟互联网服务,补完星链全球通信网络,目前该卫星已在轨运行近2年,服务全球偏远地区通信等场景。

基本信息
目录编号:
59304
目录名称:
STARLINK-31474
国际标识:
2024-056J
轨道中心:
EARTH
卫星名称:
星链-31474
卫星全名:
星链-31474 (STARLINK-31474 )
卫星状态:
在轨 (已飞行767 天)
发射日期:
2024-03-24 UTC
国别 :
美国 (US)
星等 :
--
轨道信息
数据来源 国际轨道数据
星历时间: 2026-04-30T21:02:40+0800
10小时前
查看轨道信息
半长轴: 6861.182km
偏心率: 0.0001477
轨道倾角: 43.002°
近地点辐角 263.661°
升交点赤经 291.033°
平近点角 96.407°
近地点: 482.031km
远地点: 484.059km
周期: 94.267分钟
每日圈数: 15.275815
详细信息
固有亮度:
5
最大亮度:
0.3
卫星平台:
Starlink v2.0 mini
覆盖范围:
全球
运营商:
太空探索技术公司
运营商所在国:
美国
制造商(研发单位):
太空探索技术公司
制造商所在国:
美国
使用方式:
暂无
卫星简介
星链(Starlink)计划是由太空探索技术公司(SpaceX)提出的一个巨型低轨卫星互联网星座项目,计划在2019年至2024年间在太空搭建由约1.2万颗卫星组成的“星链”网络,其中1584颗将部署在地球上空550千米处的近地轨道,并从2020年开始工作。该卫星仍在工作。
2D轨道图
3D轨道图
轨道高度分析图
轨道倾角分析图
轨道综合分析图
查看轨道综合分析图